Weather in Mjakinino

Russia / Moscow Oblast     55°48′30″N   37°22′32″E
temp.,
°C
wind,
m/s
gust,
m/s
humid.,
%
clouds,
%
prec.,
mm/h
press.,
hPa
HPBL,
m
2 march, tue
tue200:00+1w61493100 0.0 1014710
03:00+1w51393100 0.0 1012848
06:00+1wnw51393100 0.0 1009728
09:00+1wnw51291100 0.1 1009691
12:00+1wnw51199100 0.1 1008822
15:00+1nw5109699 0.4 1008908
18:00−1nw4128677 0.2 1009604
21:00−1nw5129389 0.3 1011905
3 march, wed
wed300:00−3nw51387100 0.1 1012726
03:00−4nw5128873 0.1 1014684
06:00−6nw5138643 0.0 1015719
09:00−4nw5128721 0.0 1016726
12:00−1wnw6108827 0.0 1015918
15:00−1wnw598764 0.1 1014981
18:00−1wnw51187100 0.1 1013792
21:00−2w5108995 0.1 1013860
4 march, thu
thu400:00−2wsw41189100 0.0 1010612
03:00−1wsw61397100 0.4 1006762
06:000wsw71586100 0.3 1003788
09:00−1w61291100 0.3 1002791
12:000wsw61199100 0.5 999727
15:000wsw51199100 1.4 998766
18:00−2nw41191100 1.9 998831
21:00−4nw31086100 1.9 1001500
5 march, fri
fri500:00−6nw389228 0.0 1003275
03:00−6nw259647 0.1 1006217
06:00−8nw119561 0.1 100721
09:00−7w129742 0.1 1009108
12:00−4wnw228893 0.1 1009502
15:00−3wsw138197 0.1 1010696
18:00−5ssw128742 0.1 101021
21:00−6wnw229455 0.1 101255
6 march, sat
sat600:00−8nw238920 0.0 101236
03:00−10nw239110 0.0 101351
06:00−10nw25940 0.0 1013129
09:00−9nw36930 0.0 1013323
12:00−6nw478279 0.0 10141025
15:00−6nw468389 0.2 1014969
18:00−8nw3884100 0.3 1014437
21:00−11w238959 0.3 101469